Location: Chuathbaluk
(61.5726°N, 159.2454°W)
Time: 13:10:29
(UTC+00:00)

NUDT-PHONESAT - Pass Details

Date: 23 January 2021
Orbit: 480 x 498 km, 97.4° (Epoch: 01 March)

Event Time Altitude Azimuth Distance (km) Brightness Sun altitude
Rises 05:57:40 0° 226° (SW) 2,580 ? -25.1°
Reaches altitude 10° 06:01:37 10° 269° (W) 1,710 ? -25.6°
Maximum altitude 06:02:13 10° 279° (W) 1,691 ? -25.7°
Drops below altitude 10° 06:02:50 10° 288° (WNW) 1,713 ? -25.7°
Sets 06:06:50 0° 332° (NNW) 2,609 ? -26.2°
